This is the latest recevied weather packets stored in our database for station/object JS2QVS-13. If no packets are shown the sender has not sent any weather packets the latest 10 day(s).
| Time | Temp. | Humidity | Pressure | Rain* | Wind** | Luminosity | Snow |
|---|---|---|---|---|---|---|---|
| 1777626462 | 18.89° C | 58% | 993.7 hPa | 0 mm | - | - | - |
| 1777625862 | 18.89° C | 56% | 993.6 hPa | 0 mm | - | - | - |
| 1777625262 | 19.44° C | 58% | 993.5 hPa | 0 mm | - | - | - |
| 1777624662 | 19.44° C | 60% | 993.3 hPa | 0 mm | - | - | - |
| 1777624062 | 19.44° C | 62% | 993.4 hPa | 0 mm | - | - | - |
| 1777623462 | 19.44° C | 64% | 993.4 hPa | 0 mm | - | - | - |
| 1777622862 | 19.44° C | 66% | 993.5 hPa | 0 mm | - | - | - |
| 1777622262 | 18.89° C | 68% | 993.4 hPa | 0 mm | - | - | - |
| 1777621662 | 18.33° C | 75% | 993.5 hPa | 0 mm | - | - | - |
| 1777621061 | 17.78° C | 78% | 993.7 hPa | 0 mm | - | - | - |
| 1777620461 | 18.33° C | 81% | 993.6 hPa | 0 mm | - | - | - |
| 1777619861 | 18.89° C | 77% | 993.6 hPa | 0 mm | - | - | - |
| 1777619263 | 19.44° C | 65% | 993.7 hPa | 0 mm | - | - | - |
| 1777618662 | 20° C | 63% | 993.7 hPa | 0 mm | - | - | - |
| 1777618062 | 20.56° C | 64% | 993.7 hPa | 0 mm | - | - | - |
| 1777617462 | 20.56° C | 62% | 993.5 hPa | 0 mm | - | - | - |
| 1777616861 | 21.11° C | 61% | 993 hPa | 0 mm | - | - | - |
| 1777616261 | 21.11° C | 61% | 992.9 hPa | 0 mm | - | - | - |
| 1777615661 | 22.22° C | 62% | 993 hPa | 0 mm | - | - | - |
| 1777615063 | 21.67° C | 65% | 993.3 hPa | 0 mm | - | - | - |
| 1777614463 | 21.67° C | 64% | 993.6 hPa | 0 mm | - | - | - |
| 1777613862 | 21.11° C | 64% | 993.9 hPa | 0 mm | - | - | - |
| 1777613262 | 22.22° C | 64% | 993.8 hPa | 0 mm | - | - | - |
| 1777612662 | 21.67° C | 64% | 993.9 hPa | 0 mm | - | - | - |
| 1777612061 | 22.22° C | 65% | 993.9 hPa | 0 mm | - | - | - |
* Rain latest hour (hover to see other rain measurements)
** Current wind speed in m/s (hover to see current wind gust speed)